Time,TemperatureF,DewpointF,PressureIn,WindDirection,WindDirectionDegrees,WindSpeedMPH,WindSpeedGustMPH,Humidity,HourlyPrecipIn,Conditions,Clouds,dailyrainin,SoftwareType,DateUTC
2013-09-16 00:01:00,59.2,55.6,29.88,SW,234,3.5,3.5,88,0.00,CLR,FEW,0.00,WeatherDisplay:10.37,2013-09-16 04:01:00,
2013-09-16 00:06:00,59.2,55.6,29.88,SW,234,3.5,3.5,88,0.00,CLR,FEW,0.00,WeatherDisplay:10.37,2013-09-16 04:06:00,
2013-09-16 00:11:00,59.2,56.0,29.89,SW,234,2.3,2.3,89,0.00,CLR,FEW,0.00,WeatherDisplay:10.37,2013-09-16 04:11:00,
2013-09-16 00:16:00,59.2,56.0,29.88,SW,234,2.0,2.0,89,0.00,CLR,FEW,0.00,WeatherDisplay:10.37,2013-09-16 04:16:00,
2013-09-16 00:21:00,59.3,56.1,29.88,SW,234,2.3,2.3,89,0.00,CLR,FEW,0.00,WeatherDisplay:10.37,2013-09-16 04:21:00,
2013-09-16 00:26:00,58.9,56.9,29.88,SW,231,3.5,3.5,93,0.00,CLR,FEW,0.00,WeatherDisplay:10.37,2013-09-16 04:26:00,
2013-09-16 00:31:00,58.9,57.5,29.88,SW,226,5.8,5.8,95,0.00,CLR,FEW,0.00,WeatherDisplay:10.37,2013-09-16 04:31:00,
2013-09-16 00:36:00,59.0,57.9,29.87,SW,224,3.5,3.5,96,0.00,CLR,FEW,0.00,WeatherDisplay:10.37,2013-09-16 04:36:00,
2013-09-16 00:41:00,59.3,58.2,29.87,SW,216,4.6,4.6,96,0.00,CLR,FEW,0.00,WeatherDisplay:10.37,2013-09-16 04:41:00,
2013-09-16 00:46:00,59.3,57.9,29.87,SW,225,5.8,5.8,95,0.00,CLR,FEW,0.00,WeatherDisplay:10.37,2013-09-16 04:46:00,
2013-09-16 00:51:00,59.3,57.9,29.87,SW,230,3.5,3.5,95,0.00,CLR,FEW,0.00,WeatherDisplay:10.37,2013-09-16 04:51:00,
2013-09-16 00:56:00,59.0,57.9,29.87,SW,226,3.0,3.0,96,0.00,CLR,FEW,0.00,WeatherDisplay:10.37,2013-09-16 04:56:00,
2013-09-16 01:01:00,59.2,58.1,29.87,SW,224,3.5,3.5,96,0.00,CLR,FEW,0.00,WeatherDisplay:10.37,2013-09-16 05:01:00,
2013-09-16 01:06:00,59.1,58.0,29.87,SW,226,3.5,3.5,96,0.00,CLR,FEW,0.00,WeatherDisplay:10.37,2013-09-16 05:06:00,
2013-09-16 01:11:00,59.1,58.2,29.87,SW,226,1.2,0.0,97,0.00,CLR,FEW,0.00,WeatherDisplay:10.37,2013-09-16 05:11:00,
2013-09-16 01:16:00,59.1,58.2,29.87,SW,224,4.6,4.6,97,0.00,CLR,FEW,0.00,WeatherDisplay:10.37,2013-09-16 05:16:00,
2013-09-16 01:21:00,59.1,58.5,29.87,SW,226,3.5,3.5,98,0.00,CLR,FEW,0.00,WeatherDisplay:10.37,2013-09-16 05:21:00,
2013-09-16 01:26:00,59.1,58.5,29.86,SW,221,3.5,3.5,98,0.00,CLR,FEW,0.00,WeatherDisplay:10.37,2013-09-16 05:26:00,
2013-09-16 01:31:00,59.1,58.8,29.86,SW,221,3.0,3.0,99,0.00,CLR,FEW,0.00,WeatherDisplay:10.37,2013-09-16 05:31:00,
2013-09-16 01:36:00,59.0,59.0,29.86,SW,222,3.5,3.5,100,0.00,CLR,FEW,0.00,WeatherDisplay:10.37,2013-09-16 05:36:00,
2013-09-16 01:41:00,58.9,58.9,29.86,SW,220,3.5,3.5,100,0.00,CLR,FEW,0.00,WeatherDisplay:10.37,2013-09-16 05:41:00,
2013-09-16 01:46:00,58.8,58.8,29.86,SW,223,3.0,3.0,100,0.00,CLR,FEW,0.00,WeatherDisplay:10.37,2013-09-16 05:46:00,
2013-09-16 01:51:00,58.7,58.7,29.86,SW,223,2.3,0.0,100,0.00,CLR,FEW,0.00,WeatherDisplay:10.37,2013-09-16 05:51:00,
2013-09-16 01:56:00,58.6,58.6,29.86,SW,223,0.0,0.0,100,0.00,CLR,FEW,0.00,WeatherDisplay:10.37,2013-09-16 05:56:00,
2013-09-16 02:01:00,58.4,58.4,29.86,SW,223,0.0,0.0,100,0.00,CLR,FEW,0.00,WeatherDisplay:10.37,2013-09-16 06:01:00,
2013-09-16 02:06:00,58.2,58.2,29.86,SW,223,0.0,0.0,100,0.00,CLR,FEW,0.00,WeatherDisplay:10.37,2013-09-16 06:06:00,
2013-09-16 02:11:00,58.1,58.1,29.85,SW,223,0.0,0.0,100,0.00,CLR,FEW,0.00,WeatherDisplay:10.37,2013-09-16 06:11:00,
2013-09-16 02:16:00,58.0,58.0,29.85,SW,223,0.0,0.0,100,0.00,CLR,FEW,0.00,WeatherDisplay:10.37,2013-09-16 06:16:00,
2013-09-16 02:21:00,57.9,57.9,29.85,SW,223,1.2,1.2,100,0.00,CLR,FEW,0.00,WeatherDisplay:10.37,2013-09-16 06:21:00,
2013-09-16 02:26:00,57.9,57.9,29.85,SW,223,0.0,0.1,100,0.00,CLR,FEW,0.00,WeatherDisplay:10.37,2013-09-16 06:26:00,
2013-09-16 02:31:00,57.9,57.9,29.85,SW,223,0.0,0.0,100,0.00,CLR,FEW,0.00,WeatherDisplay:10.37,2013-09-16 06:31:00,
2013-09-16 02:36:00,57.9,57.9,29.85,SW,223,0.0,0.0,100,0.00,CLR,FEW,0.00,WeatherDisplay:10.37,2013-09-16 06:36:00,
2013-09-16 02:41:00,57.8,57.8,29.85,SW,223,0.0,0.0,100,0.00,CLR,FEW,0.00,WeatherDisplay:10.37,2013-09-16 06:41:00,
2013-09-16 02:46:00,57.7,57.7,29.85,SW,223,0.0,0.0,100,0.00,CLR,FEW,0.00,WeatherDisplay:10.37,2013-09-16 06:46:00,
2013-09-16 02:51:00,57.5,57.5,29.85,SW,223,0.0,0.0,100,0.00,CLR,FEW,0.00,WeatherDisplay:10.37,2013-09-16 06:51:00,
2013-09-16 02:56:00,57.3,57.3,29.85,SW,223,0.0,0.0,100,0.00,CLR,FEW,0.00,WeatherDisplay:10.37,2013-09-16 06:56:00,
2013-09-16 03:01:00,57.2,57.2,29.85,SW,223,0.0,0.0,100,0.00,CLR,FEW,0.00,WeatherDisplay:10.37,2013-09-16 07:01:00,
2013-09-16 03:06:00,57.1,57.1,29.85,SW,223,0.0,0.0,100,0.00,CLR,FEW,0.00,WeatherDisplay:10.37,2013-09-16 07:06:00,
2013-09-16 03:11:00,57.2,57.2,29.85,SW,223,0.0,0.3,100,0.00,CLR,FEW,0.00,WeatherDisplay:10.37,2013-09-16 07:11:00,
2013-09-16 03:16:00,57.5,57.5,29.85,SW,223,0.0,0.0,100,0.00,CLR,FEW,0.00,WeatherDisplay:10.37,2013-09-16 07:16:00,
2013-09-16 03:21:00,57.5,57.5,29.85,SW,223,0.0,0.0,100,0.00,CLR,FEW,0.00,WeatherDisplay:10.37,2013-09-16 07:21:00,
2013-09-16 03:26:00,57.4,57.4,29.85,SW,223,0.0,0.0,100,0.00,CLR,FEW,0.00,WeatherDisplay:10.37,2013-09-16 07:26:00,
2013-09-16 03:31:00,57.3,57.3,29.85,SW,223,0.0,0.0,100,0.00,CLR,FEW,0.00,WeatherDisplay:10.37,2013-09-16 07:31:00,
2013-09-16 03:36:00,57.2,57.2,29.85,SW,223,0.0,0.0,100,0.00,CLR,FEW,0.00,WeatherDisplay:10.37,2013-09-16 07:36:00,
2013-09-16 03:41:00,57.1,57.1,29.85,SW,223,0.0,0.0,100,0.00,CLR,FEW,0.00,WeatherDisplay:10.37,2013-09-16 07:41:00,
2013-09-16 03:46:00,57.0,57.0,29.84,SW,223,0.0,0.0,100,0.00,CLR,FEW,0.00,WeatherDisplay:10.37,2013-09-16 07:46:00,
2013-09-16 03:51:00,57.0,57.0,29.84,SW,223,0.0,0.0,100,0.00,CLR,FEW,0.00,WeatherDisplay:10.37,2013-09-16 07:51:00,
2013-09-16 03:56:00,56.9,56.9,29.84,SW,223,0.0,0.0,100,0.00,CLR,FEW,0.00,WeatherDisplay:10.37,2013-09-16 07:56:00,
2013-09-16 04:01:00,56.9,56.9,29.84,SW,223,0.0,0.0,100,0.00,CLR,FEW,0.00,WeatherDisplay:10.37,2013-09-16 08:01:00,
2013-09-16 04:06:00,56.9,56.9,29.84,SW,223,0.0,0.0,100,0.00,CLR,FEW,0.00,WeatherDisplay:10.37,2013-09-16 08:06:00,
2013-09-16 04:11:00,56.9,56.9,29.84,SW,223,0.0,0.0,100,0.00,CLR,FEW,0.00,WeatherDisplay:10.37,2013-09-16 08:11:00,
2013-09-16 04:16:00,56.9,56.9,29.84,SW,223,0.0,0.0,100,0.00,CLR,FEW,0.00,WeatherDisplay:10.37,2013-09-16 08:16:00,
2013-09-16 04:21:00,56.8,56.8,29.84,SW,223,0.0,0.0,100,0.00,CLR,FEW,0.00,WeatherDisplay:10.37,2013-09-16 08:21:00,
2013-09-16 04:26:00,56.8,56.8,29.84,SW,223,0.0,0.0,100,0.00,CLR,FEW,0.00,WeatherDisplay:10.37,2013-09-16 08:26:00,
2013-09-16 04:31:00,56.7,56.7,29.84,SW,223,0.0,0.0,100,0.00,CLR,FEW,0.00,WeatherDisplay:10.37,2013-09-16 08:31:00,
2013-09-16 04:36:00,56.8,56.8,29.84,SW,223,0.0,0.0,100,0.00,CLR,FEW,0.00,WeatherDisplay:10.37,2013-09-16 08:36:00,
2013-09-16 04:41:00,57.0,57.0,29.84,SW,223,0.0,0.0,100,0.00,CLR,FEW,0.00,WeatherDisplay:10.37,2013-09-16 08:41:00,
2013-09-16 04:46:00,57.1,57.1,29.83,SW,223,0.0,0.0,100,0.00,CLR,FEW,0.00,WeatherDisplay:10.37,2013-09-16 08:46:00,
2013-09-16 04:51:00,57.1,57.1,29.83,SW,223,0.0,0.0,100,0.00,CLR,FEW,0.00,WeatherDisplay:10.37,2013-09-16 08:51:00,
2013-09-16 04:56:00,57.2,57.2,29.83,SW,223,0.0,0.0,100,0.00,CLR,FEW,0.00,WeatherDisplay:10.37,2013-09-16 08:56:00,
2013-09-16 05:01:00,57.2,57.2,29.83,SW,223,0.0,0.0,100,0.00,CLR,FEW,0.00,WeatherDisplay:10.37,2013-09-16 09:01:00,
2013-09-16 05:06:00,57.3,57.3,29.82,SW,223,0.0,0.0,100,0.00,CLR,FEW,0.00,WeatherDisplay:10.37,2013-09-16 09:06:00,
2013-09-16 05:11:00,57.4,57.4,29.82,SW,223,0.0,0.0,100,0.00,CLR,FEW,0.00,WeatherDisplay:10.37,2013-09-16 09:11:00,
2013-09-16 05:16:00,57.6,57.6,29.83,SW,223,3.5,3.5,100,0.00,CLR,FEW,0.00,WeatherDisplay:10.37,2013-09-16 09:16:00,
2013-09-16 05:21:00,57.7,57.7,29.83,SW,223,2.0,2.0,100,0.00,CLR,FEW,0.00,WeatherDisplay:10.37,2013-09-16 09:21:00,
2013-09-16 05:26:00,57.8,57.8,29.83,SW,223,3.5,3.5,100,0.00,CLR,FEW,0.00,WeatherDisplay:10.37,2013-09-16 09:26:00,
2013-09-16 05:31:00,57.8,57.8,29.83,SW,223,0.0,0.0,100,0.00,CLR,FEW,0.00,WeatherDisplay:10.37,2013-09-16 09:31:00,
2013-09-16 05:36:00,57.6,57.6,29.84,SW,223,0.0,0.0,100,0.00,CLR,FEW,0.00,WeatherDisplay:10.37,2013-09-16 09:36:00,
2013-09-16 05:41:00,57.7,57.7,29.84,SW,223,0.0,0.0,100,0.00,CLR,FEW,0.00,WeatherDisplay:10.37,2013-09-16 09:41:00,
2013-09-16 05:46:00,57.6,57.6,29.84,SW,223,0.0,0.0,100,0.00,CLR,FEW,0.00,WeatherDisplay:10.37,2013-09-16 09:46:00,
2013-09-16 05:51:00,57.6,57.6,29.85,SW,223,0.0,0.0,100,0.00,CLR,FEW,0.00,WeatherDisplay:10.37,2013-09-16 09:51:00,
2013-09-16 05:56:00,57.7,57.7,29.85,SW,223,1.2,0.0,100,0.00,CLR,FEW,0.00,WeatherDisplay:10.37,2013-09-16 09:56:00,
2013-09-16 06:01:00,57.7,57.7,29.84,SW,223,0.0,0.0,100,0.00,CLR,FEW,0.00,WeatherDisplay:10.37,2013-09-16 10:01:00,
2013-09-16 06:06:00,57.8,57.8,29.84,SW,223,0.0,0.0,100,0.00,CLR,FEW,0.00,WeatherDisplay:10.37,2013-09-16 10:06:00,
2013-09-16 06:11:00,57.9,57.9,29.84,SW,223,0.0,0.0,100,0.00,CLR,FEW,0.00,WeatherDisplay:10.37,2013-09-16 10:11:00,
2013-09-16 06:16:00,58.0,58.0,29.85,SW,223,0.0,0.0,100,0.00,CLR,FEW,0.00,WeatherDisplay:10.37,2013-09-16 10:16:00,
2013-09-16 06:21:00,58.1,58.1,29.85,SW,223,0.0,0.0,100,0.00,CLR,FEW,0.00,WeatherDisplay:10.37,2013-09-16 10:21:00,
2013-09-16 06:26:00,58.1,58.1,29.84,SW,223,0.0,0.0,100,0.00,CLR,FEW,0.00,WeatherDisplay:10.37,2013-09-16 10:26:00,
2013-09-16 06:31:00,58.2,-22.6,29.85,SW,223,0.0,0.0,3,0.00,CLR,FEW,0.00,WeatherDisplay:10.37,2013-09-16 10:31:00,
2013-09-16 06:36:00,58.2,-8.9,29.85,SW,223,0.0,0.0,6,0.00,CLR,FEW,0.00,WeatherDisplay:10.37,2013-09-16 10:36:00,
2013-09-16 06:41:00,58.1,-5.8,29.85,SW,223,0.0,0.0,7,0.00,CLR,FEW,0.00,WeatherDisplay:10.37,2013-09-16 10:41:00,
2013-09-16 06:46:00,58.2,-0.5,29.85,SW,223,1.2,0.0,9,0.00,CLR,FEW,0.00,WeatherDisplay:10.37,2013-09-16 10:46:00,
2013-09-16 06:51:00,57.9,-3.2,29.84,SW,223,1.2,0.0,8,0.00,CLR,FEW,0.00,WeatherDisplay:10.37,2013-09-16 10:51:00,
2013-09-16 06:56:00,57.6,7.0,29.84,SW,223,0.0,0.0,13,0.00,CLR,FEW,0.00,WeatherDisplay:10.37,2013-09-16 10:56:00,
2013-09-16 07:01:00,57.4,15.4,29.84,SW,223,0.0,0.0,19,0.00,CLR,FEW,0.00,WeatherDisplay:10.37,2013-09-16 11:01:00,
2013-09-16 07:06:00,57.4,22.8,29.84,SW,223,0.0,0.0,26,0.00,CLR,FEW,0.00,WeatherDisplay:10.37,2013-09-16 11:06:00,
2013-09-16 07:11:00,57.5,24.6,29.85,SW,223,0.0,0.0,28,0.00,CLR,FEW,0.00,WeatherDisplay:10.37,2013-09-16 11:11:00,
2013-09-16 07:16:00,57.5,25.5,29.85,SW,223,0.0,0.0,29,0.00,CLR,FEW,0.00,WeatherDisplay:10.37,2013-09-16 11:16:00,
2013-09-16 07:21:00,57.6,27.2,29.86,SW,223,3.0,3.0,31,0.00,CLR,FEW,0.00,WeatherDisplay:10.37,2013-09-16 11:21:00,
2013-09-16 07:26:00,57.8,33.0,29.86,SW,223,2.3,2.3,39,0.00,CLR,FEW,0.00,WeatherDisplay:10.37,2013-09-16 11:26:00,
2013-09-16 07:31:00,57.8,37.1,29.86,SW,223,0.0,0.0,46,0.00,CLR,FEW,0.00,WeatherDisplay:10.37,2013-09-16 11:31:00,
2013-09-16 07:36:00,57.8,39.3,29.86,SW,222,0.0,0.0,50,0.00,CLR,FEW,0.00,WeatherDisplay:10.37,2013-09-16 11:36:00,
2013-09-16 07:41:00,57.8,41.7,29.86,SW,223,0.0,0.0,55,0.00,CLR,FEW,0.00,WeatherDisplay:10.37,2013-09-16 11:41:00,
2013-09-16 07:46:00,57.8,44.0,29.87,SW,223,0.0,0.0,60,0.00,CLR,FEW,0.00,WeatherDisplay:10.37,2013-09-16 11:46:00,
2013-09-16 07:51:00,57.9,46.6,29.86,SW,223,0.0,0.0,66,0.00,CLR,FEW,0.00,WeatherDisplay:10.37,2013-09-16 11:51:00,
2013-09-16 07:56:00,57.9,49.7,29.85,SW,223,1.2,1.2,74,0.00,CLR,FEW,0.00,WeatherDisplay:10.37,2013-09-16 11:56:00,
2013-09-16 08:01:00,57.8,51.0,29.86,SW,223,0.0,0.0,78,0.00,CLR,FEW,0.00,WeatherDisplay:10.37,2013-09-16 12:01:00,
2013-09-16 08:06:00,57.9,53.1,29.88,SW,223,1.2,1.2,84,0.00,CLR,FEW,0.00,WeatherDisplay:10.37,2013-09-16 12:06:00,
2013-09-16 08:11:00,57.8,54.0,29.87,SW,223,3.5,3.5,87,0.00,CLR,FEW,0.00,WeatherDisplay:10.37,2013-09-16 12:11:00,
2013-09-16 08:16:00,57.7,55.7,29.87,WSW,238,3.5,3.5,93,0.00,CLR,FEW,0.00,WeatherDisplay:10.37,2013-09-16 12:16:00,
2013-09-16 08:21:00,57.8,57.8,29.87,WSW,250,3.5,3.5,100,0.00,CLR,FEW,0.00,WeatherDisplay:10.37,2013-09-16 12:21:00,
2013-09-16 08:26:00,58.0,58.0,29.86,WSW,251,3.5,3.5,100,0.00,CLR,FEW,0.00,WeatherDisplay:10.37,2013-09-16 12:26:00,
2013-09-16 08:31:00,58.2,58.2,29.85,West,259,1.2,0.0,100,0.00,CLR,FEW,0.00,WeatherDisplay:10.37,2013-09-16 12:31:00,
2013-09-16 08:36:00,58.3,58.3,29.86,WNW,294,4.6,4.6,100,0.00,CLR,FEW,0.00,WeatherDisplay:10.37,2013-09-16 12:36:00,
2013-09-16 08:41:00,58.5,58.5,29.86,NW,316,3.5,3.5,100,0.00,CLR,FEW,0.00,WeatherDisplay:10.37,2013-09-16 12:41:00,
2013-09-16 08:46:00,58.5,58.5,29.87,NNW,336,3.5,3.5,100,0.00,CLR,FEW,0.00,WeatherDisplay:10.37,2013-09-16 12:46:00,
2013-09-16 08:51:00,58.7,58.7,29.87,NNW,339,3.5,3.5,100,0.00,CLR,FEW,0.00,WeatherDisplay:10.37,2013-09-16 12:51:00,
2013-09-16 08:56:00,58.7,58.7,29.88,NNW,344,3.5,3.5,100,0.00,CLR,FEW,0.00,WeatherDisplay:10.37,2013-09-16 12:56:00,
2013-09-16 09:01:00,58.8,58.8,29.89,NNW,347,4.6,4.6,100,0.00,CLR,FEW,0.00,WeatherDisplay:10.37,2013-09-16 13:01:00,
2013-09-16 09:06:00,58.8,58.8,29.88,North,349,4.6,4.6,100,0.00,CLR,FEW,0.00,WeatherDisplay:10.37,2013-09-16 13:06:00,
2013-09-16 09:11:00,58.8,58.2,29.88,North,350,5.8,5.8,98,0.00,CLR,FEW,0.00,WeatherDisplay:10.37,2013-09-16 13:11:00,
2013-09-16 09:16:00,58.9,56.9,29.88,North,350,3.5,3.5,93,0.00,CLR,FEW,0.00,WeatherDisplay:10.37,2013-09-16 13:16:00,
2013-09-16 09:21:00,59.0,56.4,29.88,NNW,340,1.2,0.0,91,0.00,CLR,FEW,0.00,WeatherDisplay:10.37,2013-09-16 13:21:00,
2013-09-16 09:26:00,58.9,55.4,29.89,NNW,337,1.2,0.0,88,0.00,CLR,FEW,0.00,WeatherDisplay:10.37,2013-09-16 13:26:00,
2013-09-16 09:31:00,59.0,55.8,29.89,NNW,337,1.0,1.0,89,0.00,CLR,FEW,0.00,WeatherDisplay:10.37,2013-09-16 13:31:00,
2013-09-16 09:36:00,59.1,55.9,29.89,NNW,336,0.0,0.0,89,0.00,CLR,FEW,0.00,WeatherDisplay:10.37,2013-09-16 13:36:00,
2013-09-16 09:41:00,59.2,56.6,29.89,NNW,334,3.5,3.5,91,0.00,CLR,FEW,0.00,WeatherDisplay:10.37,2013-09-16 13:41:00,
2013-09-16 09:46:00,59.3,55.7,29.90,NNW,335,2.3,2.3,88,0.00,CLR,FEW,0.00,WeatherDisplay:10.37,2013-09-16 13:46:00,
2013-09-16 09:51:00,59.3,54.5,29.89,NNW,338,1.2,0.0,84,0.00,CLR,FEW,0.00,WeatherDisplay:10.37,2013-09-16 13:51:00,
2013-09-16 09:56:00,59.4,51.1,29.89,NNW,338,5.0,5.0,74,0.00,CLR,FEW,0.00,WeatherDisplay:10.37,2013-09-16 13:56:00,
2013-09-16 10:01:00,59.7,44.9,29.89,North,359,1.2,1.2,58,0.00,CLR,FEW,0.00,WeatherDisplay:10.37,2013-09-16 14:01:00,
2013-09-16 10:06:00,59.8,34.8,29.89,NNW,348,3.5,3.5,39,0.00,CLR,FEW,0.00,WeatherDisplay:10.37,2013-09-16 14:06:00,
2013-09-16 10:11:00,60.0,23.1,29.90,NNW,348,2.3,2.3,24,0.00,CLR,FEW,0.00,WeatherDisplay:10.37,2013-09-16 14:11:00,
2013-09-16 10:16:00,60.0,-29.0,29.89,NNE,18,4.6,4.6,2,0.00,CLR,FEW,0.00,WeatherDisplay:10.37,2013-09-16 14:16:00,
2013-09-16 10:21:00,59.9,59.9,29.90,NNE,18,3.5,3.5,100,0.00,CLR,FEW,0.00,WeatherDisplay:10.37,2013-09-16 14:21:00,
2013-09-16 10:26:00,60.0,60.0,29.91,NNE,14,2.0,2.0,100,0.00,CLR,FEW,0.00,WeatherDisplay:10.37,2013-09-16 14:26:00,
2013-09-16 10:31:00,60.2,60.2,29.90,NNE,14,1.2,1.2,100,0.00,CLR,FEW,0.00,WeatherDisplay:10.37,2013-09-16 14:31:00,
2013-09-16 10:36:00,60.2,60.2,29.89,NNE,14,2.3,2.3,100,0.00,CLR,FEW,0.00,WeatherDisplay:10.37,2013-09-16 14:36:00,
2013-09-16 10:41:00,60.3,60.3,29.90,NNE,14,1.2,1.2,100,0.00,CLR,FEW,0.00,WeatherDisplay:10.37,2013-09-16 14:41:00,
2013-09-16 10:46:00,60.4,60.4,29.90,NNE,14,3.5,3.5,100,0.00,CLR,FEW,0.00,WeatherDisplay:10.37,2013-09-16 14:46:00,
2013-09-16 10:51:00,60.4,60.4,29.90,NNE,14,2.3,2.3,100,0.00,CLR,FEW,0.00,WeatherDisplay:10.37,2013-09-16 14:51:00,
2013-09-16 10:56:00,60.6,60.6,29.90,NNE,14,3.5,3.5,100,0.00,CLR,FEW,0.00,WeatherDisplay:10.37,2013-09-16 14:56:00,
2013-09-16 11:01:00,60.8,60.8,29.89,NNE,14,3.5,3.5,100,0.00,CLR,FEW,0.00,WeatherDisplay:10.37,2013-09-16 15:01:00,
2013-09-16 11:06:00,60.9,60.9,29.88,NNE,14,3.5,3.5,100,0.00,CLR,FEW,0.00,WeatherDisplay:10.37,2013-09-16 15:06:00,
2013-09-16 11:11:00,61.2,61.2,29.89,North,0,2.3,2.3,100,0.00,CLR,FEW,0.00,WeatherDisplay:10.37,2013-09-16 15:11:00,
2013-09-16 11:16:00,61.5,61.5,29.89,North,0,3.0,3.0,100,0.00,CLR,FEW,0.00,WeatherDisplay:10.37,2013-09-16 15:16:00,
2013-09-16 11:21:00,62.0,62.0,29.89,North,0,2.0,2.0,100,0.00,CLR,FEW,0.00,WeatherDisplay:10.37,2013-09-16 15:21:00,
2013-09-16 11:26:00,62.2,62.2,29.90,NNE,28,4.6,4.6,100,0.00,CLR,FEW,0.00,WeatherDisplay:10.37,2013-09-16 15:26:00,
2013-09-16 11:31:00,62.0,62.0,29.90,North,0,4.6,4.6,100,0.00,CLR,FEW,0.00,WeatherDisplay:10.37,2013-09-16 15:31:00,
2013-09-16 11:36:00,61.9,61.9,29.88,North,354,5.8,5.8,100,0.00,CLR,FEW,0.00,WeatherDisplay:10.37,2013-09-16 15:36:00,
2013-09-16 11:41:00,62.2,62.2,29.90,North,0,3.5,3.5,100,0.00,CLR,FEW,0.00,WeatherDisplay:10.37,2013-09-16 15:41:00,
2013-09-16 11:46:00,62.4,62.4,29.90,North,359,3.5,3.5,100,0.00,CLR,FEW,0.00,WeatherDisplay:10.37,2013-09-16 15:46:00,
2013-09-16 11:51:00,62.5,62.5,29.88,NNE,32,4.6,4.6,100,0.00,CLR,FEW,0.00,WeatherDisplay:10.37,2013-09-16 15:51:00,
2013-09-16 11:56:00,62.5,62.5,29.88,NNE,19,1.2,1.2,100,0.00,CLR,FEW,0.00,WeatherDisplay:10.37,2013-09-16 15:56:00,
2013-09-16 12:01:00,62.9,62.9,29.88,NNE,13,4.6,4.6,100,0.00,CLR,FEW,0.00,WeatherDisplay:10.37,2013-09-16 16:01:00,
2013-09-16 12:06:00,63.1,63.1,29.87,NNW,344,4.6,4.6,100,0.00,CLR,FEW,0.00,WeatherDisplay:10.37,2013-09-16 16:06:00,
2013-09-16 12:11:00,63.4,63.4,29.88,NNW,347,3.5,3.5,100,0.00,CLR,FEW,0.00,WeatherDisplay:10.37,2013-09-16 16:11:00,
2013-09-16 12:16:00,63.7,63.7,29.87,North,2,5.8,5.8,100,0.00,CLR,FEW,0.00,WeatherDisplay:10.37,2013-09-16 16:16:00,
2013-09-16 12:21:00,64.1,63.8,29.87,NNW,330,9.2,9.2,99,0.00,CLR,FEW,0.00,WeatherDisplay:10.37,2013-09-16 16:21:00,
2013-09-16 12:26:00,64.6,63.4,29.86,NNW,332,6.9,6.9,96,0.00,CLR,FEW,0.00,WeatherDisplay:10.37,2013-09-16 16:26:00,
2013-09-16 12:31:00,64.9,63.4,29.86,WNW,300,3.5,3.5,95,0.00,CLR,FEW,0.00,WeatherDisplay:10.37,2013-09-16 16:31:00,
2013-09-16 12:36:00,65.3,62.3,29.87,North,0,4.6,4.6,90,0.00,CLR,FEW,0.00,WeatherDisplay:10.37,2013-09-16 16:36:00,
2013-09-16 12:41:00,65.2,61.9,29.86,NNW,327,6.9,6.9,89,0.00,CLR,FEW,0.00,WeatherDisplay:10.37,2013-09-16 16:41:00,
2013-09-16 12:46:00,65.5,60.9,29.86,North,0,5.8,5.8,85,0.00,CLR,FEW,0.00,WeatherDisplay:10.37,2013-09-16 16:46:00,
2013-09-16 12:51:00,65.8,60.8,29.86,NNE,19,8.1,8.1,84,0.00,CLR,FEW,0.00,WeatherDisplay:10.37,2013-09-16 16:51:00,
2013-09-16 12:56:00,66.1,59.4,29.86,NNE,13,11.5,11.5,79,0.00,CLR,FEW,0.00,WeatherDisplay:10.37,2013-09-16 16:56:00,
2013-09-16 13:01:00,66.6,56.9,29.87,North,7,13.8,13.8,71,0.00,CLR,FEW,0.00,WeatherDisplay:10.37,2013-09-16 17:01:00,
2013-09-16 13:06:00,66.8,55.1,29.86,NNW,345,12.7,12.7,66,0.00,CLR,FEW,0.00,WeatherDisplay:10.37,2013-09-16 17:06:00,
2013-09-16 13:11:00,67.1,54.1,29.86,NNW,342,13.8,13.8,63,0.00,CLR,FEW,0.00,WeatherDisplay:10.37,2013-09-16 17:11:00,
2013-09-16 13:16:00,67.0,53.5,29.86,NNW,328,13.8,13.8,62,0.00,CLR,FEW,0.00,WeatherDisplay:10.37,2013-09-16 17:16:00,
2013-09-16 13:21:00,66.9,53.5,29.86,North,352,11.0,11.0,62,0.00,CLR,FEW,0.00,WeatherDisplay:10.37,2013-09-16 17:21:00,
2013-09-16 13:26:00,67.1,54.1,29.86,NNW,332,11.5,11.5,63,0.00,CLR,FEW,0.00,WeatherDisplay:10.37,2013-09-16 17:26:00,
2013-09-16 13:31:00,67.3,53.4,29.87,NW,312,10.4,10.4,61,0.00,CLR,FEW,0.00,WeatherDisplay:10.37,2013-09-16 17:31:00,
2013-09-16 13:36:00,67.7,53.8,29.86,North,1,5.8,5.8,61,0.00,CLR,FEW,0.00,WeatherDisplay:10.37,2013-09-16 17:36:00,
2013-09-16 13:41:00,67.9,54.4,29.88,NNW,346,15.0,15.0,62,0.00,CLR,FEW,0.00,WeatherDisplay:10.37,2013-09-16 17:41:00,
2013-09-16 13:46:00,67.2,53.7,29.88,NE,34,3.5,4.1,62,0.00,CLR,FEW,0.00,WeatherDisplay:10.37,2013-09-16 17:46:00,
2013-09-16 13:51:00,67.7,54.6,29.86,NW,309,8.1,8.1,63,0.00,CLR,FEW,0.00,WeatherDisplay:10.37,2013-09-16 17:51:00,
2013-09-16 13:56:00,67.6,54.1,29.88,WNW,303,3.5,3.5,62,0.00,CLR,FEW,0.00,WeatherDisplay:10.37,2013-09-16 17:56:00,
2013-09-16 14:01:00,67.7,54.2,29.88,NW,325,7.0,7.0,62,0.00,CLR,FEW,0.00,WeatherDisplay:10.37,2013-09-16 18:01:00,
2013-09-16 14:06:00,67.7,54.2,29.86,East,82,4.6,4.6,62,0.00,CLR,FEW,0.00,WeatherDisplay:10.37,2013-09-16 18:06:00,
2013-09-16 14:11:00,67.9,54.4,29.86,North,349,9.2,9.2,62,0.00,CLR,FEW,0.00,WeatherDisplay:10.37,2013-09-16 18:11:00,
2013-09-16 14:16:00,67.6,54.1,29.86,North,359,8.1,8.1,62,0.00,CLR,FEW,0.00,WeatherDisplay:10.37,2013-09-16 18:16:00,
2013-09-16 14:21:00,67.0,54.8,29.86,NE,46,5.8,5.8,65,0.00,CLR,FEW,0.00,WeatherDisplay:10.37,2013-09-16 18:21:00,
2013-09-16 14:26:00,66.8,55.9,29.88,NE,56,6.9,6.9,68,0.00,CLR,FEW,0.00,WeatherDisplay:10.37,2013-09-16 18:26:00,
2013-09-16 14:31:00,66.6,56.1,29.89,ENE,59,10.4,10.4,69,0.00,CLR,FEW,0.00,WeatherDisplay:10.37,2013-09-16 18:31:00,
2013-09-16 14:36:00,66.4,56.3,29.89,North,358,5.8,5.8,70,0.00,CLR,FEW,0.00,WeatherDisplay:10.37,2013-09-16 18:36:00,
2013-09-16 14:41:00,66.3,55.8,29.87,NNE,24,6.9,6.9,69,0.00,CLR,FEW,0.00,WeatherDisplay:10.37,2013-09-16 18:41:00,
2013-09-16 14:46:00,66.2,56.1,29.86,NNE,25,5.0,5.0,70,0.00,CLR,FEW,0.00,WeatherDisplay:10.37,2013-09-16 18:46:00,
2013-09-16 14:51:00,66.4,55.9,29.86,North,2,6.0,6.0,69,0.00,CLR,FEW,0.00,WeatherDisplay:10.37,2013-09-16 18:51:00,
2013-09-16 14:56:00,66.0,55.9,29.86,NNE,24,3.5,3.5,70,0.00,CLR,FEW,0.00,WeatherDisplay:10.37,2013-09-16 18:56:00,
2013-09-16 15:01:00,66.2,55.7,29.86,NNW,345,8.1,8.1,69,0.00,CLR,FEW,0.00,WeatherDisplay:10.37,2013-09-16 19:01:00,
2013-09-16 15:06:00,66.2,55.7,29.86,NNE,12,9.2,9.2,69,0.00,CLR,FEW,0.00,WeatherDisplay:10.37,2013-09-16 19:06:00,
2013-09-16 15:11:00,66.3,55.8,29.86,NNW,340,4.0,4.0,69,0.00,CLR,FEW,0.00,WeatherDisplay:10.37,2013-09-16 19:11:00,
2013-09-16 15:16:00,66.6,55.7,29.86,NNW,331,10.4,10.4,68,0.00,CLR,FEW,0.00,WeatherDisplay:10.37,2013-09-16 19:16:00,
2013-09-16 15:21:00,66.5,55.2,29.86,North,358,5.8,5.8,67,0.00,CLR,FEW,0.00,WeatherDisplay:10.37,2013-09-16 19:21:00,
2013-09-16 15:26:00,66.7,55.4,29.86,NNW,329,4.6,4.6,67,0.00,CLR,FEW,0.00,WeatherDisplay:10.37,2013-09-16 19:26:00,
2013-09-16 15:31:00,66.9,55.2,29.86,NNW,346,5.8,5.8,66,0.00,CLR,FEW,0.00,WeatherDisplay:10.37,2013-09-16 19:31:00,
2013-09-16 15:36:00,66.8,55.1,29.88,NNW,332,4.6,4.6,66,0.00,CLR,FEW,0.00,WeatherDisplay:10.37,2013-09-16 19:36:00,
2013-09-16 15:41:00,66.8,54.7,29.86,NW,308,4.6,4.6,65,0.00,CLR,FEW,0.00,WeatherDisplay:10.37,2013-09-16 19:41:00,
2013-09-16 15:46:00,66.9,55.2,29.86,NW,306,5.8,5.8,66,0.00,CLR,FEW,0.00,WeatherDisplay:10.37,2013-09-16 19:46:00,
2013-09-16 15:51:00,66.8,55.1,29.86,NNW,331,6.9,6.9,66,0.00,CLR,FEW,0.00,WeatherDisplay:10.37,2013-09-16 19:51:00,
2013-09-16 15:56:00,66.8,55.5,29.86,NNW,332,4.0,4.0,67,0.00,CLR,FEW,0.00,WeatherDisplay:10.37,2013-09-16 19:56:00,
2013-09-16 16:01:00,66.9,54.7,29.86,NNW,333,10.4,10.4,65,0.00,CLR,FEW,0.00,WeatherDisplay:10.37,2013-09-16 20:01:00,
2013-09-16 16:06:00,66.8,54.2,29.86,NW,308,8.1,8.1,64,0.00,CLR,FEW,0.00,WeatherDisplay:10.37,2013-09-16 20:06:00,
2013-09-16 16:11:00,66.9,54.3,29.86,NW,325,5.8,5.8,64,0.00,CLR,FEW,0.00,WeatherDisplay:10.37,2013-09-16 20:11:00,
2013-09-16 16:16:00,66.8,54.2,29.86,NW,317,8.1,8.1,64,0.00,CLR,FEW,0.00,WeatherDisplay:10.37,2013-09-16 20:16:00,
2013-09-16 16:21:00,66.7,54.1,29.88,NNW,329,10.4,10.4,64,0.00,CLR,FEW,0.00,WeatherDisplay:10.37,2013-09-16 20:21:00,
2013-09-16 16:26:00,66.5,53.5,29.87,NNW,337,8.1,8.1,63,0.00,CLR,FEW,0.00,WeatherDisplay:10.37,2013-09-16 20:26:00,
2013-09-16 16:31:00,66.5,53.5,29.86,NW,314,10.4,10.4,63,0.00,CLR,FEW,0.00,WeatherDisplay:10.37,2013-09-16 20:31:00,
2013-09-16 16:36:00,66.5,53.5,29.86,NNW,327,8.1,8.1,63,0.00,CLR,FEW,0.00,WeatherDisplay:10.37,2013-09-16 20:36:00,
2013-09-16 16:41:00,66.4,53.8,29.87,NW,306,10.4,10.4,64,0.00,CLR,FEW,0.00,WeatherDisplay:10.37,2013-09-16 20:41:00,
2013-09-16 16:46:00,66.5,53.9,29.87,NW,310,8.1,8.1,64,0.00,CLR,FEW,0.00,WeatherDisplay:10.37,2013-09-16 20:46:00,
2013-09-16 16:51:00,66.5,54.4,29.87,NW,314,5.8,5.8,65,0.00,CLR,FEW,0.00,WeatherDisplay:10.37,2013-09-16 20:51:00,
2013-09-16 16:56:00,66.6,54.5,29.87,NNW,343,5.8,5.8,65,0.00,CLR,FEW,0.00,WeatherDisplay:10.37,2013-09-16 20:56:00,
2013-09-16 17:01:00,66.5,54.8,29.87,NNW,336,5.8,5.8,66,0.00,CLR,FEW,0.00,WeatherDisplay:10.37,2013-09-16 21:01:00,
2013-09-16 17:06:00,66.5,55.6,29.87,NNW,347,7.0,7.0,68,0.00,CLR,FEW,0.00,WeatherDisplay:10.37,2013-09-16 21:06:00,
2013-09-16 17:11:00,66.3,55.8,29.88,NNW,341,7.0,7.0,69,0.00,CLR,FEW,0.00,WeatherDisplay:10.37,2013-09-16 21:11:00,
2013-09-16 17:16:00,66.0,55.9,29.88,North,2,9.2,9.2,70,0.00,CLR,FEW,0.00,WeatherDisplay:10.37,2013-09-16 21:16:00,
2013-09-16 17:21:00,65.8,55.7,29.88,NNW,346,9.0,9.0,70,0.00,CLR,FEW,0.00,WeatherDisplay:10.37,2013-09-16 21:21:00,
2013-09-16 17:26:00,65.7,55.6,29.88,North,6,6.9,6.9,70,0.00,CLR,FEW,0.00,WeatherDisplay:10.37,2013-09-16 21:26:00,
2013-09-16 17:31:00,65.6,55.9,29.88,North,353,10.4,10.4,71,0.00,CLR,FEW,0.00,WeatherDisplay:10.37,2013-09-16 21:31:00,
2013-09-16 17:36:00,65.5,55.8,29.89,North,353,9.2,9.2,71,0.00,CLR,FEW,0.00,WeatherDisplay:10.37,2013-09-16 21:36:00,
2013-09-16 17:41:00,65.5,55.8,29.88,North,6,10.0,10.0,71,0.00,CLR,FEW,0.00,WeatherDisplay:10.37,2013-09-16 21:41:00,
2013-09-16 17:46:00,65.4,56.1,29.89,North,359,5.8,5.8,72,0.00,CLR,FEW,0.00,WeatherDisplay:10.37,2013-09-16 21:46:00,
2013-09-16 17:51:00,65.3,56.0,29.89,North,0,5.0,5.0,72,0.00,CLR,FEW,0.00,WeatherDisplay:10.37,2013-09-16 21:51:00,
2013-09-16 17:56:00,65.2,56.3,29.89,North,357,9.2,9.2,73,0.00,CLR,FEW,0.00,WeatherDisplay:10.37,2013-09-16 21:56:00,
2013-09-16 18:01:00,65.0,56.1,29.89,North,353,9.2,9.2,73,0.00,CLR,FEW,0.00,WeatherDisplay:10.37,2013-09-16 22:01:00,
2013-09-16 18:06:00,64.9,56.8,29.89,NW,320,8.1,8.1,75,0.00,CLR,FEW,0.00,WeatherDisplay:10.37,2013-09-16 22:06:00,
2013-09-16 18:11:00,64.6,56.9,29.90,NNW,334,6.0,6.0,76,0.00,CLR,FEW,0.00,WeatherDisplay:10.37,2013-09-16 22:11:00,
2013-09-16 18:16:00,64.4,57.4,29.90,NNW,334,4.0,4.0,78,0.00,CLR,FEW,0.00,WeatherDisplay:10.37,2013-09-16 22:16:00,
2013-09-16 18:21:00,64.1,57.8,29.90,North,350,6.0,6.0,80,0.00,CLR,FEW,0.00,WeatherDisplay:10.37,2013-09-16 22:21:00,
2013-09-16 18:27:00,64.0,58.1,29.90,NW,318,5.0,5.0,81,0.00,CLR,FEW,0.00,WeatherDisplay:10.37,2013-09-16 22:27:00,
2013-09-16 18:31:00,64.0,58.7,29.90,NW,315,4.0,4.0,83,0.00,CLR,FEW,0.00,WeatherDisplay:10.37,2013-09-16 22:31:00,
2013-09-16 18:36:00,63.8,58.5,29.90,WNW,300,6.9,6.9,83,0.00,CLR,FEW,0.00,WeatherDisplay:10.37,2013-09-16 22:36:00,
2013-09-16 18:41:00,63.5,58.6,29.91,WNW,302,3.5,3.5,84,0.00,CLR,FEW,0.00,WeatherDisplay:10.37,2013-09-16 22:41:00,
2013-09-16 18:46:00,63.4,58.5,29.90,NW,313,4.0,4.0,84,0.00,CLR,FEW,0.00,WeatherDisplay:10.37,2013-09-16 22:46:00,
2013-09-16 18:51:00,63.3,58.7,29.90,NW,313,3.5,3.5,85,0.00,CLR,FEW,0.00,WeatherDisplay:10.37,2013-09-16 22:51:00,
2013-09-16 18:56:00,63.0,58.4,29.91,NW,310,3.5,3.5,85,0.00,CLR,FEW,0.00,WeatherDisplay:10.37,2013-09-16 22:56:00,
2013-09-16 19:01:00,63.0,58.4,29.92,NW,310,3.5,3.5,85,0.00,CLR,FEW,0.00,WeatherDisplay:10.37,2013-09-16 23:01:00,
2013-09-16 19:06:00,62.9,58.6,29.91,NW,317,2.3,2.3,86,0.00,CLR,FEW,0.00,WeatherDisplay:10.37,2013-09-16 23:06:00,
2013-09-16 19:11:00,62.8,58.2,29.91,NW,317,4.6,4.6,85,0.00,CLR,FEW,0.00,WeatherDisplay:10.37,2013-09-16 23:11:00,
2013-09-16 19:16:00,62.7,58.5,29.91,NW,314,4.6,4.6,86,0.00,CLR,FEW,0.00,WeatherDisplay:10.37,2013-09-16 23:16:00,
2013-09-16 19:21:00,62.5,58.3,29.91,NW,314,3.5,3.5,86,0.00,CLR,FEW,0.00,WeatherDisplay:10.37,2013-09-16 23:21:00,
2013-09-16 19:26:00,62.4,58.5,29.91,NW,314,3.5,3.5,87,0.00,CLR,FEW,0.00,WeatherDisplay:10.37,2013-09-16 23:26:00,
2013-09-16 19:31:00,62.3,58.7,29.91,NW,314,3.5,3.5,88,0.00,CLR,FEW,0.00,WeatherDisplay:10.37,2013-09-16 23:31:00,
2013-09-16 19:36:00,62.2,58.9,29.92,NW,315,2.3,2.3,89,0.00,CLR,FEW,0.00,WeatherDisplay:10.37,2013-09-16 23:36:00,
2013-09-16 19:41:00,62.1,59.1,29.92,NW,315,3.0,3.0,90,0.00,CLR,FEW,0.00,WeatherDisplay:10.37,2013-09-16 23:41:00,
2013-09-16 19:46:00,62.0,59.3,29.94,NW,314,3.5,3.5,91,0.00,CLR,FEW,0.00,WeatherDisplay:10.37,2013-09-16 23:46:00,
2013-09-16 19:51:00,61.9,59.5,29.94,NW,315,4.6,4.6,92,0.00,CLR,FEW,0.00,WeatherDisplay:10.37,2013-09-16 23:51:00,
2013-09-16 19:56:00,61.8,59.8,29.94,NW,315,3.5,3.5,93,0.00,CLR,FEW,0.00,WeatherDisplay:10.37,2013-09-16 23:56:00,
2013-09-16 20:01:00,61.7,60.0,29.94,WNW,303,5.0,5.0,94,0.00,CLR,FEW,0.00,WeatherDisplay:10.37,2013-09-17 00:01:00,
2013-09-16 20:06:00,61.7,60.0,29.95,NW,307,5.8,5.8,94,0.00,CLR,FEW,0.00,WeatherDisplay:10.37,2013-09-17 00:06:00,
2013-09-16 20:11:00,61.8,60.4,29.95,WNW,296,6.9,6.9,95,0.00,CLR,FEW,0.00,WeatherDisplay:10.37,2013-09-17 00:11:00,
2013-09-16 20:16:00,61.8,60.4,29.95,NW,311,5.8,5.8,95,0.00,CLR,FEW,0.00,WeatherDisplay:10.37,2013-09-17 00:16:00,
2013-09-16 20:21:00,61.7,60.5,29.96,NW,325,8.1,8.1,96,0.00,CLR,FEW,0.00,WeatherDisplay:10.37,2013-09-17 00:21:00,
2013-09-16 20:26:00,61.8,60.4,29.96,NW,324,6.0,6.0,95,0.00,CLR,FEW,0.00,WeatherDisplay:10.37,2013-09-17 00:26:00,
2013-09-16 20:31:00,61.7,60.0,29.96,NW,325,8.1,8.1,94,0.00,CLR,FEW,0.00,WeatherDisplay:10.37,2013-09-17 00:31:00,
2013-09-16 20:36:00,61.5,59.2,29.95,NW,313,11.5,11.5,92,0.00,CLR,FEW,0.00,WeatherDisplay:10.37,2013-09-17 00:36:00,
2013-09-16 20:41:00,61.4,59.1,29.95,NW,313,8.0,8.0,92,0.00,CLR,FEW,0.00,WeatherDisplay:10.37,2013-09-17 00:41:00,
2013-09-16 20:46:00,61.4,58.7,29.95,NNW,327,8.1,8.1,91,0.00,CLR,FEW,0.00,WeatherDisplay:10.37,2013-09-17 00:46:00,
2013-09-16 20:51:00,61.1,58.5,29.95,NW,317,8.1,8.1,91,0.00,CLR,FEW,0.00,WeatherDisplay:10.37,2013-09-17 00:51:00,
2013-09-16 20:56:00,61.2,58.6,29.97,NW,315,11.5,11.5,91,0.00,CLR,FEW,0.00,WeatherDisplay:10.37,2013-09-17 00:56:00,
2013-09-16 21:01:00,60.9,58.3,29.96,NW,315,9.2,9.2,91,0.00,CLR,FEW,0.00,WeatherDisplay:10.37,2013-09-17 01:01:00,
2013-09-16 21:06:00,60.8,58.2,29.96,NNW,339,9.0,9.0,91,0.00,CLR,FEW,0.00,WeatherDisplay:10.37,2013-09-17 01:06:00,
2013-09-16 21:11:00,60.6,58.0,29.96,NNW,331,8.1,8.1,91,0.00,CLR,FEW,0.00,WeatherDisplay:10.37,2013-09-17 01:11:00,
2013-09-16 21:16:00,60.6,58.0,29.97,North,355,6.0,6.3,91,0.00,CLR,FEW,0.00,WeatherDisplay:10.37,2013-09-17 01:16:00,
2013-09-16 21:21:00,60.4,58.4,29.97,North,11,9.2,9.2,93,0.00,CLR,FEW,0.00,WeatherDisplay:10.37,2013-09-17 01:21:00,
2013-09-16 21:26:00,60.4,58.7,29.98,North,9,10.4,10.4,94,0.00,CLR,FEW,0.00,WeatherDisplay:10.37,2013-09-17 01:26:00,
2013-09-16 21:31:00,60.0,58.6,29.98,NNW,347,15.0,15.0,95,0.00,CLR,FEW,0.00,WeatherDisplay:10.37,2013-09-17 01:31:00,
2013-09-16 21:36:00,59.6,58.2,29.98,North,2,9.0,9.0,95,0.00,CLR,FEW,0.00,WeatherDisplay:10.37,2013-09-17 01:36:00,
2013-09-16 21:41:00,59.2,57.5,29.98,NNE,14,15.0,15.0,94,0.00,CLR,FEW,0.00,WeatherDisplay:10.37,2013-09-17 01:41:00,
2013-09-16 21:46:00,58.8,57.1,29.99,North,3,9.2,9.2,94,0.00,CLR,FEW,0.00,WeatherDisplay:10.37,2013-09-17 01:46:00,
2013-09-16 21:51:00,58.5,56.8,29.99,NNE,13,8.1,8.1,94,0.00,CLR,FEW,0.00,WeatherDisplay:10.37,2013-09-17 01:51:00,
2013-09-16 21:56:00,58.3,56.9,30.00,North,9,11.5,11.5,95,0.00,CLR,FEW,0.00,WeatherDisplay:10.37,2013-09-17 01:56:00,
2013-09-16 22:01:00,57.9,56.5,30.00,NNE,15,13.8,13.8,95,0.00,CLR,FEW,0.00,WeatherDisplay:10.37,2013-09-17 02:01:00,
2013-09-16 22:06:00,57.6,56.5,30.00,NNW,345,16.1,16.1,96,0.00,CLR,FEW,0.00,WeatherDisplay:10.37,2013-09-17 02:06:00,
2013-09-16 22:11:00,57.3,55.6,30.01,NNW,339,17.3,17.3,94,0.00,CLR,FEW,0.00,WeatherDisplay:10.37,2013-09-17 02:11:00,
2013-09-16 22:16:00,57.1,55.4,30.01,NNW,348,11.5,11.5,94,0.00,CLR,FEW,0.00,WeatherDisplay:10.37,2013-09-17 02:16:00,
2013-09-16 22:21:00,56.9,54.9,30.01,NNE,12,13.8,13.8,93,0.00,CLR,FEW,0.00,WeatherDisplay:10.37,2013-09-17 02:21:00,
2013-09-16 22:26:00,56.7,54.4,30.02,NNE,32,9.2,9.2,92,0.00,CLR,FEW,0.00,WeatherDisplay:10.37,2013-09-17 02:26:00,
2013-09-16 22:31:00,56.5,53.9,30.02,NE,42,13.8,13.8,91,0.00,CLR,FEW,0.00,WeatherDisplay:10.37,2013-09-17 02:31:00,
2013-09-16 22:36:00,56.4,53.8,30.02,NNE,24,9.2,9.2,91,0.00,CLR,FEW,0.00,WeatherDisplay:10.37,2013-09-17 02:36:00,
2013-09-16 22:41:00,56.2,53.6,30.02,NNE,17,10.4,10.4,91,0.00,CLR,FEW,0.00,WeatherDisplay:10.37,2013-09-17 02:41:00,
2013-09-16 22:46:00,56.0,53.7,30.02,NNE,12,6.0,6.0,92,0.00,CLR,FEW,0.00,WeatherDisplay:10.37,2013-09-17 02:46:00,
2013-09-16 22:51:00,55.8,53.5,30.02,NNW,340,10.4,10.4,92,0.00,CLR,FEW,0.00,WeatherDisplay:10.37,2013-09-17 02:51:00,
2013-09-16 22:56:00,55.6,53.0,30.03,North,7,13.0,13.0,91,0.00,CLR,FEW,0.00,WeatherDisplay:10.37,2013-09-17 02:56:00,
2013-09-16 23:01:00,55.4,52.2,30.03,North,2,15.0,15.0,89,0.00,CLR,FEW,0.00,WeatherDisplay:10.37,2013-09-17 03:01:00,
2013-09-16 23:06:00,55.2,51.4,30.03,NE,51,17.3,17.3,87,0.00,CLR,FEW,0.00,WeatherDisplay:10.37,2013-09-17 03:06:00,
2013-09-16 23:11:00,54.9,51.1,30.03,North,0,19.6,19.6,87,0.00,CLR,FEW,0.00,WeatherDisplay:10.37,2013-09-17 03:11:00,
2013-09-16 23:16:00,54.7,50.6,30.04,North,8,18.4,18.4,86,0.00,CLR,FEW,0.00,WeatherDisplay:10.37,2013-09-17 03:16:00,
2013-09-16 23:21:00,54.3,50.5,30.04,NNE,26,16.1,16.1,87,0.00,CLR,FEW,0.00,WeatherDisplay:10.37,2013-09-17 03:21:00,
2013-09-16 23:26:00,54.3,50.2,30.04,NNE,20,12.7,12.7,86,0.00,CLR,FEW,0.00,WeatherDisplay:10.37,2013-09-17 03:26:00,
2013-09-16 23:31:00,54.1,49.7,30.05,North,10,11.5,11.5,85,0.00,CLR,FEW,0.00,WeatherDisplay:10.37,2013-09-17 03:31:00,
2013-09-16 23:36:00,54.0,49.3,30.05,NNE,25,11.5,11.5,84,0.00,CLR,FEW,0.00,WeatherDisplay:10.37,2013-09-17 03:36:00,
2013-09-16 23:41:00,54.1,49.4,30.07,NNE,21,11.5,11.5,84,0.00,CLR,FEW,0.00,WeatherDisplay:10.37,2013-09-17 03:41:00,
2013-09-16 23:46:00,53.8,49.1,30.06,NNE,15,13.8,13.8,84,0.00,CLR,FEW,0.00,WeatherDisplay:10.37,2013-09-17 03:46:00,
2013-09-16 23:51:00,53.7,48.7,30.06,NNW,341,10.4,10.4,83,0.00,CLR,FEW,0.00,WeatherDisplay:10.37,2013-09-17 03:51:00,
2013-09-16 23:57:00,53.5,48.5,30.06,North,5,18.4,18.4,83,0.00,CLR,FEW,0.00,WeatherDisplay:10.37,2013-09-17 03:57:00,